Retour au catalogue

STARLINK-36951

ActifCommunicationsVLEO
NORAD 67990·PAYLOAD·🇺🇸 United States

Lancé Feb 27, 2026 depuis Vandenberg Space Force Base

Loading…

Prochains Passages (prochaines 24 heures)

TLE

FraisSource: CelesTrak SupGP

Époque: Sep 14, 2026, 23:18 UTC

1 67990C 26039E   26257.97131944  .00042756  00000+0  15483-2 0  2574
2 67990  43.0005  60.1581 0001644 274.4636 295.5794 15.27562763    19

Suivez STARLINK-36951 en temps réel avec AllMySat

Download on the App Store